Location: ?????
(32.7281°N, 34.9563°E)
Time: 18:25:50
(UTC+00:00)

Cosmos 2263 Rocket - Pass Details

Date: 29 October 2020
Orbit: 822 x 850 km, 71.0° (Epoch: 30 November)

Event Time Altitude Azimuth Distance (km) Brightness Sun altitude
Rises 17:00:04 0° 350° (N) 3,417 5.5 -27.5°
Reaches altitude 10° 17:02:49 10° 1° (N) 2,479 4.6 -28.1°
Enters shadow 17:03:31 13° 5° (N) 2,260 4.4 -28.2°
